GEFSSE_500_meanwind_066.txt.gz
Wind_Speed
4 4 4 4 5 6 7 8 9 9 9 8 7 6 5 4 4 4 4 5 5 5 5 5 4 4 4 4 4 4 4 4 4 4 4 4 4 4 5 5 5 5 4
5 6 6 6 6 7 8 9 10 10 10 9 8 7 6 5 4 3 3 3 3 3 3 3 3 3 2 2 2 2 2 2 3 3 3 3 3 3 3 4 4 4 4
6 7 7 7 7 8 9 10 11 11 11 10 9 8 8 7 6 5 4 4 4 3 3 3 2 2 1 1 1 1 1 1 1 1 1 2 2 2 2 2 3 3 3
6 7 7 7 8 9 10 10 11 12 11 11 10 10 9 9 8 7 6 6 6 5 4 4 3 3 2 2 1 1 1 1 1 1 1 1 2 2 2 2 2 3 3
6 7 7 8 9 10 11 11 11 12 12 12 11 11 11 11 10 9 8 8 8 7 6 6 5 4 4 4 3 3 3 3 3 3 3 3 3 3 3 3 3 3 4
7 7 7 8 9 10 11 11 12 12 12 12 12 13 13 12 12 11 11 10 10 9 9 8 7 7 6 6 5 5 5 5 5 5 4 4 5 5 5 5 5 5 5
8 8 8 9 10 11 12 12 13 13 13 14 14 14 14 14 14 14 14 13 12 12 11 10 10 9 9 8 8 8 7 7 7 7 7 7 7 7 7 7 7 7 7
9 9 10 11 12 13 13 14 14 15 15 15 16 16 16 16 17 17 16 15 15 14 13 13 12 12 12 11 11 11 10 10 10 9 9 9 9 9 9 9 9 9 9
10 11 12 13 14 15 16 16 17 17 18 18 18 19 19 19 19 19 18 18 18 17 16 15 15 15 15 14 14 14 13 13 13 12 12 12 12 12 12 12 12 12 12
13 14 15 16 18 18 19 19 20 20 21 21 21 22 22 22 21 21 20 20 20 19 18 17 17 17 17 17 16 16 16 16 15 15 15 14 14 14 14 15 15 14 14
16 17 18 19 21 21 21 22 22 23 23 24 24 25 25 25 24 24 23 23 22 21 20 19 19 19 19 19 18 18 17 17 16 17 17 16 16 16 16 17 17 17 17
18 19 20 21 23 24 24 25 26 26 27 27 28 28 29 29 28 27 26 25 24 23 22 21 20 20 20 20 19 19 18 18 18 18 18 17 17 17 18 18 19 19 19
21 22 23 24 25 26 27 29 29 30 30 31 32 33 33 33 32 31 30 28 27 26 25 23 22 21 21 20 20 19 19 18 18 19 19 18 18 18 19 19 19 20 21
23 24 25 26 28 29 30 31 32 33 34 35 35 35 36 35 36 35 33 32 30 28 27 26 23 22 22 21 21 20 19 19 19 19 18 18 18 18 19 19 20 21 21
26 27 28 29 30 31 32 33 33 35 36 37 38 38 38 38 38 38 37 35 33 31 29 26 24 24 23 22 21 21 20 20 20 19 18 18 18 18 18 18 19 20 21
29 30 31 32 33 34 34 34 35 37 38 38 37 37 38 38 38 39 38 36 33 32 30 28 26 25 24 23 23 22 21 21 20 19 18 18 19 19 18 18 19 19 20
32 33 33 34 35 36 35 36 35 36 37 36 37 37 38 38 38 39 39 37 35 33 32 30 29 27 25 24 24 23 22 21 20 19 19 19 18 18 18 18 19 19 20
33 34 35 36 37 38 37 35 34 35 34 34 36 38 37 37 38 39 39 38 36 34 32 31 30 29 27 26 24 24 23 22 21 20 20 19 18 17 17 17 18 18 18
34 35 36 37 38 38 37 36 35 35 34 34 34 34 33 32 33 36 37 37 37 35 32 31 29 30 29 27 25 24 23 22 22 21 20 19 18 17 17 17 17 17 18
35 37 37 39 40 39 39 38 37 36 36 35 32 29 28 28 30 32 33 33 35 35 32 31 30 30 29 28 26 25 25 24 23 22 22 20 19 18 18 17 16 16 16
37 38 39 40 40 40 40 39 37 36 35 33 31 29 26 26 28 27 29 30 31 32 31 31 30 30 30 29 27 26 26 26 25 24 23 22 20 20 19 17 16 15 15
36 38 38 38 38 38 37 36 36 35 34 33 31 29 26 26 27 27 28 29 30 29 29 31 31 30 29 29 29 28 28 27 27 26 25 24 23 21 20 19 17 16 15
35 35 36 36 36 36 36 36 36 36 34 32 31 29 27 26 27 27 28 29 29 29 29 30 31 31 31 31 31 30 30 30 29 29 28 27 25 24 22 20 18 17 15
33 34 34 35 35 36 37 37 37 36 35 34 33 32 30 30 29 29 29 29 30 30 31 31 31 30 30 31 31 31 32 31 31 31 30 29 27 26 24 22 20 18 17
32 33 34 35 36 37 38 38 39 38 38 38 37 36 34 34 34 33 33 33 32 33 32 32 32 31 31 32 32 32 33 33 33 33 33 32 30 28 27 25 23 21 19
34 35 37 38 39 39 40 41 41 41 41 41 40 40 39 38 37 38 38 37 37 37 36 35 35 35 35 35 35 36 36 36 35 35 35 35 33 32 30 28 26 24 22

GEFSSE_500_meanwind_072.txt.gz
Wind_Speed
8 7 7 7 7 8 8 8 9 10 11 11 12 12 11 10 10 9 9 9 9 8 8 7 7 7 6 6 6 5 5 5 5 6 6 6 6 6 6 6 6 7 6
8 8 7 7 8 8 8 8 9 10 10 11 11 11 11 10 10 9 9 9 8 8 8 7 7 6 6 6 5 5 4 4 4 4 4 4 5 5 5 5 5 5 5
9 8 8 8 8 8 8 8 9 9 10 10 11 11 11 10 10 9 9 9 9 8 8 8 7 6 6 5 5 4 4 3 3 3 3 3 3 3 3 4 4 4 4
9 9 9 9 8 8 8 9 9 9 10 11 11 11 11 11 10 10 9 9 9 9 8 8 7 7 6 6 5 5 4 3 3 2 2 1 1 2 2 2 2 3 3
10 10 9 9 9 9 9 9 10 10 11 11 12 12 12 11 11 11 10 10 10 10 9 9 8 8 8 7 7 6 6 5 4 3 2 2 1 0 0 1 1 2 2
11 10 10 9 9 10 10 10 11 12 12 12 13 13 13 13 12 12 12 11 11 11 10 10 10 10 9 9 9 8 7 7 6 5 4 4 3 3 2 1 0 0 1
12 12 11 11 11 11 11 12 13 13 14 14 14 14 14 14 14 14 14 14 13 12 12 12 12 12 11 11 11 11 10 9 9 8 7 6 5 4 4 3 2 2 1
12 12 12 12 13 14 15 15 16 16 16 17 17 17 17 17 17 16 16 16 15 15 14 14 14 14 14 14 13 13 13 12 11 10 9 9 8 7 6 5 5 4 3
14 14 14 15 16 16 17 18 18 19 19 20 20 20 20 21 20 20 19 19 18 18 17 16 16 16 16 16 16 16 15 15 14 14 12 11 10 9 9 8 7 7 6
16 17 17 17 18 19 19 20 20 21 21 22 23 23 23 23 23 23 23 22 22 21 20 19 19 19 18 18 18 18 18 17 17 16 15 14 13 12 12 11 10 10 9
18 18 18 19 20 21 21 21 22 22 23 24 25 26 26 26 26 26 26 26 25 24 23 22 22 21 20 20 20 20 20 20 19 18 17 17 16 14 14 13 13 12 12
20 20 20 20 21 22 23 23 24 25 26 27 28 28 29 30 30 30 29 28 28 27 27 26 25 23 22 22 23 22 22 22 21 19 18 18 18 16 15 15 15 15 15
22 22 22 22 23 24 25 25 26 27 28 29 30 30 31 32 32 33 32 31 30 30 29 28 28 26 24 23 24 24 23 23 22 22 19 18 19 18 17 17 16 16 16
24 25 25 25 26 27 28 29 29 30 30 31 32 32 32 33 34 34 34 34 32 31 30 31 29 28 26 25 26 25 25 24 24 23 21 20 20 19 18 18 17 17 17
26 28 28 28 29 30 31 32 32 32 33 34 34 33 33 35 36 36 36 36 35 34 33 32 31 30 29 27 27 26 26 27 25 24 22 20 19 20 19 19 18 17 18
29 30 30 31 32 33 34 34 36 36 35 36 36 35 35 35 35 37 38 37 36 36 35 34 33 32 30 29 27 27 27 27 26 24 22 21 20 20 20 20 19 18 18
31 32 33 33 34 35 36 37 38 37 37 37 37 36 36 36 37 37 37 37 37 37 37 35 33 32 31 29 28 27 27 27 25 24 23 21 21 21 20 20 19 19 18
32 33 34 34 35 36 37 39 39 39 39 39 39 38 38 38 37 38 36 36 37 35 34 34 33 33 31 30 29 28 27 26 25 25 24 23 22 21 21 20 20 19 19
32 32 34 35 36 38 40 40 41 41 40 40 40 40 39 39 39 38 36 36 35 34 34 33 33 32 32 31 29 28 28 27 25 26 25 23 23 23 22 21 20 20 19
30 32 34 36 38 40 40 40 40 40 40 41 40 40 40 39 38 38 36 35 32 32 31 31 31 30 31 30 30 29 29 28 27 26 26 25 24 24 23 21 20 20 19
29 31 34 36 38 39 39 40 40 40 40 40 40 40 39 38 37 36 35 33 31 30 28 29 31 31 30 31 31 30 29 28 28 27 27 26 26 26 24 23 22 21 20
30 32 34 35 36 38 39 40 40 40 40 39 39 38 38 37 37 35 34 33 32 30 29 30 31 32 32 32 32 31 30 28 29 29 28 29 28 27 26 25 23 22 21
29 31 33 35 36 38 39 39 39 39 39 40 39 38 38 38 37 36 35 34 33 31 30 31 31 32 33 32 32 32 31 29 30 30 30 30 29 29 28 27 25 24 23
28 30 32 34 35 36 37 38 38 39 40 40 40 40 39 39 38 38 37 35 34 32 32 31 31 31 33 33 33 33 32 31 31 31 32 32 32 31 30 29 28 25 24
29 30 32 33 34 35 37 38 40 41 42 42 42 41 41 41 40 40 39 38 37 36 35 33 33 33 34 34 34 34 34 34 33 33 33 34 34 33 32 31 30 28 26
29 31 32 33 35 36 38 40 41 42 43 43 43 43 43 43 42 41 41 40 40 39 38 36 35 34 34 35 34 35 36 36 36 35 35 35 35 35 34 34 32 31 29

GEFSSE_500_meanwind_078.txt.gz
Wind_Speed
8 8 7 6 6 6 6 6 7 7 7 8 9 9 9 10 10 10 10 10 9 9 9 8 8 8 7 7 7 6 6 7 7 7 7 7 7 8 8 9 9 10 10
8 8 7 6 6 5 5 6 6 6 7 7 8 8 8 9 9 9 9 9 9 9 8 8 7 7 7 6 6 5 5 5 5 5 6 6 6 7 7 8 8 9 9
7 7 7 7 6 6 6 6 6 6 6 7 7 8 8 8 8 8 8 8 9 9 8 8 7 7 6 6 5 4 4 4 3 4 4 4 5 5 6 6 7 8 8
7 7 7 6 6 6 6 6 6 6 6 7 7 7 7 7 7 7 8 8 8 8 8 8 8 7 7 6 5 4 4 3 3 2 2 2 3 4 4 5 6 7 7
7 6 6 5 5 5 6 6 6 6 7 7 7 8 8 8 8 8 8 8 9 9 9 9 8 8 8 7 6 5 5 4 3 2 1 0 1 2 3 4 5 6 6
6 6 6 6 6 6 6 7 7 8 7 8 8 8 9 9 9 9 9 9 10 10 10 10 10 10 10 9 8 7 6 6 5 4 3 2 2 2 3 4 5 5 6
6 6 7 7 7 8 8 8 9 9 9 9 9 10 10 10 10 10 10 11 11 11 12 12 12 12 11 11 10 9 8 8 8 7 6 5 5 4 4 5 5 5 6
6 6 7 9 9 9 9 10 10 10 11 11 11 11 12 12 12 12 12 12 13 13 13 14 14 14 14 13 13 12 11 10 10 10 9 9 8 7 7 6 6 6 6
7 8 9 10 10 11 11 11 11 12 12 12 13 13 14 15 15 15 15 14 15 15 15 15 16 16 16 16 15 14 13 13 13 13 12 11 11 10 9 9 8 8 7
9 9 10 10 11 12 12 12 12 13 13 13 14 15 16 16 17 17 18 18 18 18 17 18 18 18 18 18 18 17 16 15 15 15 14 14 13 12 12 11 10 10 9
11 11 11 11 11 12 13 13 14 14 15 15 16 17 18 18 18 19 20 20 19 19 19 20 20 20 20 20 20 19 19 19 17 17 16 16 16 15 14 14 13 12 11
14 14 13 13 13 14 14 15 15 16 17 17 18 19 20 20 20 20 21 21 21 21 20 21 21 22 22 22 22 21 21 21 20 19 18 18 18 18 17 16 15 14 13
16 16 16 15 16 16 16 17 17 18 19 20 20 22 22 22 23 23 23 23 23 23 23 23 24 24 24 23 24 24 24 23 23 22 20 20 20 19 19 19 17 16 16
17 17 18 17 17 18 19 19 20 20 21 22 23 24 25 25 26 24 23 24 25 25 26 26 26 27 26 26 26 26 26 25 25 23 22 22 22 22 21 21 20 18 18
19 19 19 20 20 21 21 21 23 23 23 24 26 26 27 28 27 27 25 26 26 26 27 28 28 28 28 28 26 27 28 27 26 25 25 24 23 24 23 22 22 21 20
20 19 20 20 21 23 23 23 24 25 25 27 28 28 28 28 28 28 28 28 28 28 28 28 29 29 29 28 27 28 29 29 28 27 27 26 25 25 25 24 24 23 21
21 22 22 23 23 23 25 26 27 28 29 31 31 31 31 30 30 30 30 29 29 29 28 28 29 28 27 26 27 28 28 29 29 28 28 28 27 26 25 25 25 23 23
23 23 24 24 25 25 26 27 29 30 32 32 33 33 33 32 32 32 31 31 31 30 30 29 30 28 28 27 27 28 29 29 29 29 29 28 27 26 26 26 25 24 23
23 23 23 24 25 25 27 28 29 31 32 33 34 34 35 34 34 33 32 32 32 31 31 31 31 28 27 27 28 28 29 29 30 30 29 28 28 27 27 26 26 26 24
23 23 24 25 26 27 29 30 31 32 34 35 35 36 36 36 36 35 34 33 33 32 31 31 30 28 28 27 27 27 28 29 30 30 29 29 29 28 28 27 26 26 25
22 23 25 26 28 29 30 31 32 34 35 35 36 36 36 37 36 35 35 34 33 32 32 31 29 28 28 27 27 28 28 28 29 30 30 30 29 29 28 28 27 26 25
23 24 25 26 28 29 31 32 34 35 35 35 35 36 36 37 36 36 36 35 35 34 33 32 30 29 28 29 28 27 27 28 29 30 30 30 30 29 29 28 28 27 27
22 24 25 26 28 30 31 33 34 35 35 36 36 37 37 38 38 38 38 37 36 36 35 33 32 30 29 29 28 28 26 27 29 30 31 31 32 30 30 30 30 29 28
21 23 25 27 29 31 32 34 35 36 37 38 38 38 38 39 39 39 39 39 38 37 37 35 34 33 31 30 29 29 29 29 29 31 32 32 32 32 31 31 31 31 30
21 23 25 27 29 31 33 35 36 38 39 39 40 40 40 40 39 39 39 39 39 38 38 37 36 35 34 32 31 31 31 29 30 31 33 34 33 33 32 33 33 32 31
21 24 26 27 29 31 33 35 37 38 39 39 40 40 40 40 40 39 39 39 39 38 38 38 37 37 36 35 34 33 33 33 32 32 35 36 35 34 35 35 35 34 33

GEFSSE_500_meanwind_084.txt.gz
Wind_Speed
6 6 5 5 5 5 5 5 6 6 6 7 7 7 7 7 7 8 8 8 8 8 8 8 8 8 7 7 7 7 6 6 6 6 6 6 6 6 6 6 7 8 8
6 5 5 5 5 4 4 5 5 5 5 5 5 5 5 5 5 5 6 6 6 6 6 6 6 6 6 6 5 5 5 5 5 5 5 5 5 5 5 6 6 7 8
6 6 5 4 4 4 4 4 4 4 4 4 4 4 4 4 4 4 4 5 5 5 5 5 5 5 5 4 4 3 3 3 3 3 4 4 4 4 5 5 6 7 8
7 7 6 5 4 4 4 4 4 4 4 4 4 4 4 4 4 4 4 4 5 5 5 5 5 4 4 3 3 2 1 1 1 2 3 3 3 4 5 5 5 6 7
8 7 7 6 5 4 4 4 4 4 4 5 5 5 5 5 6 6 6 5 5 6 6 6 5 5 5 4 3 3 2 2 1 2 2 3 4 4 5 5 5 6 7
9 8 7 7 5 5 5 5 5 5 5 6 6 6 7 7 7 8 8 8 8 8 8 8 8 7 7 7 6 5 4 4 4 4 4 4 4 5 5 5 5 6 6
10 9 8 8 7 6 6 6 6 6 6 7 8 8 8 9 9 10 10 11 11 11 11 11 10 10 10 9 9 8 7 7 7 6 6 6 6 6 6 6 6 6 6
10 10 9 9 9 8 8 8 8 8 8 8 9 9 10 10 11 12 12 13 13 14 14 14 13 13 12 12 11 11 10 9 9 9 8 8 8 7 7 7 7 7 7
12 12 12 11 11 10 9 9 9 9 9 10 10 11 12 12 13 13 14 14 15 16 16 16 16 15 15 14 14 13 13 12 12 12 11 10 10 10 9 9 9 9 8
15 15 14 12 12 12 11 11 10 10 10 10 11 11 12 13 14 14 15 16 16 17 18 18 18 17 17 17 17 16 16 15 15 14 13 13 12 12 12 11 11 11 10
16 16 15 14 14 14 13 13 13 12 12 11 12 12 13 14 15 16 16 17 17 18 19 19 19 19 19 19 19 19 18 18 18 17 16 15 15 14 14 14 13 13 12
17 16 17 17 17 16 16 16 15 15 14 14 14 14 15 16 16 17 18 19 19 20 20 20 20 21 21 21 21 21 21 20 20 20 19 18 17 17 17 16 16 16 15
18 19 19 20 20 19 19 19 19 18 17 17 16 16 17 18 19 19 19 20 21 22 22 22 22 22 23 23 22 23 22 22 21 22 23 21 20 19 18 19 19 19 18
20 21 21 22 22 22 22 21 21 20 20 20 20 20 19 20 21 21 22 22 22 23 23 24 24 25 25 25 25 25 24 24 24 24 24 25 23 21 21 21 22 21 21
21 21 22 22 23 23 22 23 23 24 24 23 22 22 21 22 24 22 23 24 24 24 24 25 25 25 26 27 26 26 26 25 26 26 26 26 26 24 23 23 24 23 23
21 22 21 21 22 23 23 24 24 23 23 20 20 22 23 23 23 24 25 26 25 25 26 26 26 25 26 26 26 26 26 26 26 27 28 28 27 27 26 25 25 25 25
20 20 20 21 22 23 23 23 22 20 19 19 20 21 23 24 25 26 27 27 27 27 27 27 27 27 27 27 26 26 27 26 26 26 28 29 28 28 27 27 26 26 27
19 19 19 19 21 21 21 21 21 21 21 21 22 23 24 26 27 27 28 28 28 29 29 28 28 28 28 27 27 27 27 27 26 26 27 29 30 29 29 28 28 27 27
17 17 17 19 19 20 21 21 20 21 23 23 23 24 26 27 28 29 29 30 30 30 30 29 29 28 28 28 27 27 28 28 28 28 28 29 31 31 31 30 29 29 28
16 17 18 18 19 21 21 21 22 23 24 25 26 27 28 29 30 30 31 31 31 31 31 30 30 30 29 28 27 27 28 28 29 29 29 29 30 33 33 32 31 31 30
16 17 18 18 20 21 22 23 24 25 27 28 29 29 30 31 32 32 32 33 33 33 32 32 31 31 30 29 28 28 28 28 29 29 29 29 30 32 33 34 33 32 31
16 17 18 19 20 22 23 25 26 28 28 29 30 32 32 33 34 34 34 34 35 35 34 34 33 32 32 31 30 29 28 28 28 28 29 30 31 32 33 34 34 33 33
16 17 18 20 21 23 24 26 28 29 31 32 33 34 35 36 36 36 36 36 36 36 36 36 35 34 33 33 32 31 30 29 29 29 30 31 32 33 33 34 34 34 33
16 18 20 21 23 24 26 27 29 30 32 33 35 36 37 37 37 37 37 37 37 37 37 37 36 35 35 34 34 34 33 31 30 30 30 31 32 33 34 35 34 35 34
17 19 21 22 24 26 28 29 31 32 34 35 36 37 37 38 38 37 37 37 37 37 37 37 37 37 36 36 36 35 35 34 32 31 30 31 33 33 34 35 36 36 35
18 20 22 24 26 28 29 31 32 33 34 35 36 36 37 37 38 38 37 37 37 38 38 38 38 38 37 37 37 36 36 35 34 34 32 32 33 34 34 36 37 37 36

GEFSSE_500_meanwind_090.txt.gz
Wind_Speed
2 3 2 1 1 2 2 2 2 1 1 2 3 4 4 5 5 5 6 6 6 6 6 6 6 5 5 5 5 5 5 4 5 5 5 4 4 4 4 5 5 6 6
2 2 1 1 1 3 3 3 3 3 2 0 1 2 2 3 3 3 3 4 4 4 4 4 4 4 3 3 3 3 3 4 3 3 4 4 4 4 4 4 5 5 6
2 2 2 2 3 4 4 5 5 4 3 2 1 0 0 1 1 1 1 1 2 2 2 2 1 1 1 1 1 2 2 3 3 3 3 3 3 4 4 4 4 5 6
3 2 2 3 4 5 5 6 6 6 5 4 3 3 2 1 1 1 1 1 1 1 1 1 1 1 1 2 2 2 2 2 3 3 3 3 3 3 4 4 4 5 5
3 4 4 4 5 6 6 7 7 7 6 6 5 4 4 4 4 3 3 4 4 4 4 4 4 4 4 4 3 4 4 4 4 4 4 4 4 4 4 4 4 5 5
4 4 5 5 6 7 8 8 8 8 8 7 7 7 6 6 6 5 5 6 6 7 7 7 6 6 7 6 6 6 6 6 6 6 6 6 6 6 6 6 5 5 5
5 5 6 7 8 9 9 10 10 10 10 10 9 9 9 8 8 8 8 8 9 9 9 9 9 9 9 9 8 8 8 8 8 8 8 8 8 8 8 7 7 7 7
6 7 8 9 10 10 11 11 12 12 12 12 12 11 11 11 10 10 10 10 11 11 11 11 11 11 11 11 10 10 10 10 10 10 10 10 10 10 10 10 9 9 8
9 10 11 11 12 12 13 13 13 13 14 14 13 13 13 13 12 12 12 12 12 12 12 12 13 13 12 13 13 13 12 12 12 12 13 13 12 12 12 12 11 11 10
11 12 12 14 14 15 15 15 15 15 16 16 15 15 15 15 14 14 13 13 13 13 13 13 13 14 14 14 14 15 15 15 15 15 15 15 15 15 15 15 14 14 13
14 14 14 16 16 17 17 17 18 18 18 18 18 17 17 17 17 16 15 14 15 15 15 15 15 15 15 16 16 16 17 17 17 17 17 18 18 18 17 17 17 17 16
16 17 18 18 18 19 19 20 20 21 21 21 20 20 20 19 19 18 18 17 16 17 16 16 16 16 17 18 18 19 19 20 20 19 19 20 21 21 20 20 20 19 19
19 19 20 19 20 21 22 22 23 23 22 22 23 23 23 23 22 21 20 19 19 19 18 17 18 19 18 18 19 20 20 21 22 23 22 21 22 23 23 22 22 22 21
20 21 22 22 22 23 23 23 24 24 23 23 23 24 25 25 24 23 23 22 21 21 20 20 20 20 20 20 20 21 22 22 23 23 23 24 24 24 25 25 25 25 24
21 22 22 23 23 24 24 25 25 25 26 25 24 24 23 22 20 21 23 24 22 21 21 21 21 22 21 21 21 21 22 22 23 24 24 25 26 26 27 27 27 27 27
20 21 21 22 23 23 23 24 24 24 25 24 23 22 22 21 21 22 23 23 23 22 23 23 22 23 23 23 23 22 22 23 24 25 26 27 27 29 29 29 30 29 29
19 19 20 21 21 21 20 19 20 19 20 21 21 20 19 20 22 22 23 23 22 23 23 24 24 24 23 24 23 23 22 23 24 25 27 28 28 29 31 31 31 32 31
18 18 18 18 18 17 17 17 17 16 15 16 18 19 18 19 21 22 23 24 24 24 24 24 24 25 25 25 24 24 24 24 24 25 27 27 28 30 32 33 32 33 33
18 16 16 16 15 15 14 14 15 14 14 14 16 17 20 22 23 23 24 25 25 26 26 26 26 27 27 27 26 25 25 25 25 26 27 27 28 29 32 34 35 34 34
15 14 13 14 14 14 14 15 15 15 15 16 18 19 20 22 24 25 26 27 28 28 28 28 28 29 29 28 28 27 27 27 27 27 27 27 28 29 31 33 35 36 36
13 13 13 13 14 14 15 16 16 16 17 18 20 21 22 23 25 26 27 28 29 30 30 30 30 30 30 30 30 29 29 29 28 29 28 29 29 30 32 33 35 35 36
10 11 12 13 14 15 16 17 18 19 20 21 22 23 24 25 26 27 28 30 30 31 31 32 32 31 31 31 31 31 30 30 30 30 30 30 30 31 33 35 34 36 37
9 10 12 13 14 16 17 18 19 21 22 23 24 25 26 27 27 28 29 30 30 31 31 32 32 32 32 32 33 33 32 32 32 31 32 32 31 32 33 35 35 35 37
9 11 12 13 15 16 18 19 21 22 23 25 26 27 27 28 28 29 30 30 30 31 32 32 33 33 33 34 34 34 34 34 34 33 33 34 33 33 34 35 36 36 37
10 12 13 14 16 18 19 21 23 24 25 26 27 27 28 28 29 30 30 31 31 32 32 33 33 34 34 35 35 35 36 36 36 36 35 35 35 35 35 36 36 37 37
11 13 15 17 19 20 22 23 24 25 26 27 27 27 28 29 30 30 31 31 32 32 32 33 34 34 35 35 35 36 36 37 37 37 37 37 37 37 37 36 37 38 38

GEFSSE_500_meanwind_096.txt.gz
Wind_Speed
3 2 2 2 2 2 2 3 4 4 4 4 4 4 3 3 3 3 3 2 2 2 3 4 4 4 4 4 4 4 4 3 4 4 4 4 4 5 5 6 6 7 8
4 4 3 3 3 3 3 4 5 5 5 5 5 5 4 4 4 3 3 3 2 2 2 2 3 3 3 3 3 3 2 2 2 3 3 3 3 4 4 5 5 6 7
6 6 5 5 5 5 5 5 6 6 6 6 6 6 6 5 5 5 5 5 4 3 3 3 3 3 3 3 2 2 2 1 1 1 1 2 2 3 3 4 5 6 6
7 6 6 6 6 6 6 7 7 7 7 7 7 7 7 7 6 6 6 6 6 5 5 4 4 4 4 4 4 3 3 2 1 1 1 0 1 1 2 3 4 5 5
7 7 7 7 7 7 7 8 8 8 9 9 8 8 8 8 8 8 7 7 7 7 7 6 6 6 6 6 6 5 5 4 3 3 2 2 1 1 1 2 3 4 4
7 8 8 7 7 7 8 9 9 10 10 10 10 9 9 10 10 9 9 9 9 9 9 8 8 8 8 8 8 7 7 6 5 4 4 4 3 2 2 2 3 3 3
7 8 8 7 7 8 9 10 10 11 11 12 11 11 11 11 12 12 11 11 11 11 11 10 10 9 9 9 9 9 9 8 7 6 6 5 5 4 4 3 3 4 4
9 9 9 8 9 9 10 11 12 12 13 13 13 13 13 13 14 14 13 13 13 13 13 12 11 10 10 10 10 10 10 9 9 8 8 8 7 6 6 5 5 4 4
11 10 11 11 11 11 12 13 14 14 15 15 15 15 15 15 15 15 15 15 15 15 15 14 13 12 12 12 11 12 12 12 11 10 9 10 9 9 8 8 7 7 6
12 12 12 13 13 13 14 15 16 16 16 16 17 17 18 18 17 17 17 16 16 16 16 15 15 14 14 14 13 13 13 13 13 13 12 12 11 11 11 10 10 9 8
13 13 13 14 15 15 15 16 17 17 18 19 19 20 20 20 20 20 20 19 18 18 17 17 16 15 14 15 15 15 15 15 15 15 14 14 14 13 13 13 12 12 11
14 14 14 14 16 17 17 18 19 20 20 21 21 21 21 22 23 23 22 22 21 20 20 19 18 17 17 17 16 16 17 17 18 17 16 16 16 16 16 15 15 14 14
15 15 14 15 17 18 19 19 20 20 22 22 22 23 23 23 23 24 24 24 23 22 22 21 21 20 19 18 17 17 17 18 19 19 19 19 19 19 18 18 18 17 17
15 14 15 16 17 18 19 21 21 21 22 21 21 21 22 22 22 23 22 20 20 21 21 21 21 21 21 20 18 18 18 18 19 19 19 21 21 22 21 20 20 20 19
16 16 16 17 18 18 20 21 21 20 21 23 23 22 22 23 23 24 22 20 18 19 20 20 21 20 20 19 19 20 20 20 19 20 20 21 23 24 24 22 22 22 22
16 16 17 17 17 19 19 19 18 18 20 20 20 20 21 21 22 23 22 21 20 20 20 20 21 20 19 19 20 20 20 21 21 21 21 21 22 23 24 25 24 24 25
17 16 16 16 17 18 17 16 17 18 19 19 19 20 20 19 19 19 20 21 20 20 20 21 21 21 21 21 21 21 21 21 22 23 23 21 22 23 25 25 26 26 27
16 16 15 15 15 15 15 15 15 16 16 16 17 18 18 17 16 17 18 20 20 20 20 21 21 22 23 23 23 23 23 23 23 24 24 23 23 23 25 27 27 27 28
14 14 14 13 13 14 14 14 14 15 16 16 15 15 16 16 17 18 19 20 22 22 22 23 23 24 24 25 25 25 25 25 24 25 25 25 25 25 25 27 28 29 29
13 12 12 13 14 14 14 14 14 14 14 15 16 16 16 17 19 20 21 22 23 23 24 24 25 25 26 27 27 27 27 27 26 26 27 27 27 27 26 27 28 29 30
11 12 13 14 15 14 13 13 14 13 14 16 16 17 18 19 21 21 22 22 23 24 24 25 26 27 28 28 29 29 29 29 29 28 28 28 28 28 28 28 29 29 31
10 11 12 13 12 13 14 14 14 15 16 17 18 19 20 21 22 22 23 24 25 25 26 27 28 28 29 29 29 30 30 30 31 30 30 29 29 30 29 29 29 29 30
8 9 9 10 11 12 13 14 15 17 18 19 19 20 21 22 22 23 24 25 26 26 26 27 28 29 30 30 31 31 31 31 31 31 31 31 31 31 31 30 30 31 31
7 8 9 10 12 13 14 15 17 18 19 20 21 21 22 22 23 23 24 25 26 26 27 27 28 29 29 30 31 31 31 31 32 32 33 33 32 33 33 32 32 32 32
7 8 10 12 13 14 15 17 18 20 20 21 21 21 22 23 23 24 24 25 26 27 27 28 28 29 29 29 30 31 31 32 33 33 34 35 34 34 34 34 34 33 33
8 9 11 13 14 16 17 18 19 20 21 21 22 22 23 24 24 24 25 26 27 27 28 28 29 29 29 29 30 30 31 32 32 33 33 34 35 35 36 36 35 35 35

GEFSSE_500_meanwind_102.txt.gz
Wind_Speed
2 1 1 0 0 1 1 1 2 3 4 5 5 5 5 6 6 6 6 6 6 6 5 5 5 5 5 6 5 5 5 5 6 6 6 6 6 7 7 8 8 9 9
2 2 1 1 1 1 1 1 1 2 3 4 5 5 5 5 6 6 6 6 6 6 5 5 5 5 5 5 5 5 5 5 4 5 5 6 6 6 6 7 7 8 9
2 2 2 2 2 2 2 2 2 2 3 4 5 5 5 5 6 6 6 6 6 6 5 5 5 5 4 4 4 4 4 4 3 4 4 5 5 5 5 6 6 7 8
2 3 3 3 3 2 2 3 2 3 3 4 5 5 5 6 6 6 6 6 6 6 6 6 6 5 5 4 4 4 3 3 3 2 2 3 4 4 4 5 6 7 7
2 3 3 3 3 3 3 3 3 4 4 4 5 6 6 6 7 7 7 7 8 8 8 7 7 6 6 5 4 4 3 3 2 1 1 2 2 3 3 4 5 5 6
3 3 4 4 4 4 4 4 4 4 5 5 5 6 7 7 7 8 8 8 9 9 9 9 8 8 7 6 5 4 4 3 2 1 1 1 1 2 2 3 4 5 5
3 4 4 4 4 5 5 4 5 5 6 6 6 7 8 8 8 9 9 10 10 10 10 10 10 9 8 7 6 6 5 5 4 3 3 2 2 2 2 3 4 4 4
4 4 5 5 5 6 6 6 6 6 7 7 8 8 9 10 10 10 10 11 11 11 12 12 11 10 9 9 8 8 7 6 6 6 5 5 4 4 4 4 4 4 4
5 5 6 6 6 6 7 8 7 8 8 9 10 10 10 11 11 12 12 13 13 13 13 13 12 12 11 11 10 9 8 8 8 7 7 7 7 6 6 6 5 5 5
6 5 6 7 7 8 8 9 9 10 10 11 11 12 12 13 14 14 14 14 15 15 15 15 15 14 13 12 12 11 10 9 9 9 9 9 8 8 8 8 8 7 7
6 6 6 7 8 9 9 10 11 12 12 13 13 14 14 15 15 15 16 17 16 16 16 16 16 16 15 14 14 13 12 11 11 11 11 11 10 10 10 10 10 9 9
7 7 8 8 9 10 11 12 13 13 13 14 14 14 14 15 16 16 17 18 17 17 17 17 17 17 17 16 15 14 13 12 12 13 13 13 12 12 12 12 12 11 11
8 7 8 7 8 10 11 12 13 14 14 15 15 15 15 16 16 16 16 16 16 16 16 17 17 17 17 17 16 15 15 14 15 15 16 16 16 14 14 14 14 13 13
9 8 7 8 8 9 10 12 12 13 14 14 14 14 14 15 15 16 15 16 15 15 15 15 15 16 16 16 16 16 16 16 15 16 17 17 17 16 16 16 16 16 15
11 9 8 8 9 8 9 11 12 12 12 13 13 14 14 15 15 14 14 14 15 15 15 15 15 15 16 16 17 17 17 18 17 17 18 18 18 17 17 18 19 19 18
11 9 9 8 8 8 8 9 10 10 10 10 11 12 13 13 14 14 14 15 14 16 16 16 16 17 17 17 17 18 18 18 18 18 18 19 20 19 19 19 19 21 22
10 9 8 7 7 8 9 8 9 9 9 10 11 11 11 11 11 12 12 13 14 15 16 16 17 16 17 18 18 19 19 19 20 20 20 20 20 20 20 20 21 21 22
9 8 7 7 7 7 7 7 7 7 7 9 10 10 10 10 10 11 13 13 14 15 15 16 17 18 18 18 19 20 20 21 22 21 21 21 21 21 21 20 21 22 22
7 6 5 4 4 5 6 7 8 7 7 8 9 10 10 10 11 12 13 13 14 15 15 16 18 19 19 19 19 20 21 22 23 23 23 23 22 23 23 23 23 24 23
5 4 2 2 3 4 5 6 7 6 7 8 8 9 10 10 11 12 13 14 15 16 16 17 18 20 20 21 21 22 23 23 24 24 25 25 25 24 24 24 24 25 25
4 3 2 1 3 3 5 6 6 7 8 8 8 9 10 11 11 12 13 14 15 16 17 18 19 21 22 22 22 23 24 24 25 26 26 27 27 27 26 26 26 27 26
4 3 2 0 2 3 4 5 6 7 7 8 9 9 10 10 11 12 13 14 15 16 17 18 19 20 21 22 23 23 24 25 26 26 27 27 28 28 28 28 28 29 28
3 2 1 0 1 3 4 5 6 7 7 8 8 9 10 11 11 12 14 15 16 17 17 18 19 20 21 22 23 24 25 26 26 27 28 28 28 29 29 30 30 30 30
3 3 2 1 2 3 4 5 6 7 7 8 9 10 11 12 13 14 15 16 17 17 18 19 20 20 21 22 23 23 24 25 26 27 28 29 29 30 30 30 31 31 31
3 3 3 3 3 4 4 5 6 7 8 8 9 10 11 12 14 15 16 17 18 19 20 20 21 22 22 23 23 24 24 25 26 27 28 28 29 30 31 32 32 33 32
3 3 4 4 4 4 5 6 6 7 8 9 10 11 13 14 15 16 18 19 20 21 22 23 23 23 23 24 25 25 26 26 26 27 28 29 29 30 31 32 33 34 34

GEFSSE_500_meanwind_108.txt.gz
Wind_Speed
3 3 4 3 2 1 2 3 5 5 6 6 6 7 7 7 7 8 8 8 8 8 7 7 7 7 7 7 7 7 7 7 6 6 6 7 7 7 7 8 9 10 10
4 4 4 4 3 2 1 2 3 4 4 5 5 5 5 5 6 6 6 6 7 7 6 6 6 6 6 6 6 6 6 6 6 6 6 6 6 6 7 8 8 9 10
5 5 4 4 4 3 1 1 2 2 3 3 3 3 4 4 4 4 5 5 5 5 5 5 5 5 5 4 4 4 4 4 5 5 5 5 5 5 6 6 7 9 9
6 6 5 5 4 4 2 2 1 1 1 1 2 2 3 3 3 3 4 4 4 5 5 5 4 4 4 3 3 3 3 3 3 3 3 4 4 5 6 6 7 8 8
7 7 6 6 5 4 3 2 2 1 0 1 1 2 2 3 3 4 4 4 4 5 5 4 4 3 3 3 2 2 1 1 2 2 2 3 3 4 5 6 6 7 7
8 8 7 7 5 5 4 3 2 2 1 1 2 3 3 4 4 4 5 5 6 6 6 5 4 4 3 3 2 2 1 0 1 1 2 3 3 3 4 5 6 6 6
8 9 8 8 6 5 4 4 3 3 3 3 3 4 5 5 6 6 6 7 7 7 7 7 6 5 4 4 3 3 2 2 2 2 3 3 4 4 4 5 5 6 6
10 10 9 9 7 6 5 5 5 4 4 5 5 5 6 6 7 8 9 9 9 9 9 8 8 7 6 6 5 4 4 3 4 4 4 4 4 5 5 5 5 6 6
11 11 10 8 8 7 6 6 6 6 6 6 7 7 7 8 9 10 10 11 11 11 10 10 9 9 8 7 7 7 6 5 5 5 6 6 6 6 6 6 6 6 6
12 12 11 10 9 8 8 7 8 8 8 8 8 8 8 9 11 11 12 12 12 12 12 12 11 11 10 9 9 9 8 7 6 6 7 7 7 8 8 8 7 7 7
14 13 12 11 11 10 9 8 8 9 9 9 9 9 10 10 11 12 13 13 14 14 14 14 13 12 12 11 11 10 10 9 8 8 9 9 9 9 10 10 10 9 9
15 15 14 12 11 10 9 9 10 9 10 10 10 10 11 12 12 13 14 14 15 15 15 14 13 12 12 12 11 11 11 11 10 10 10 11 11 11 11 11 12 11 11
15 15 14 13 11 9 9 10 11 10 10 10 10 11 12 12 13 13 14 14 15 15 15 14 13 12 12 12 12 12 12 12 11 11 11 12 12 13 13 13 13 13 14
15 16 15 13 12 11 10 10 10 10 9 10 10 10 11 12 12 13 14 14 13 14 13 13 13 13 12 12 12 13 13 13 13 13 13 13 14 15 15 15 15 15 15
17 17 16 14 13 12 12 11 10 10 9 9 9 10 10 11 12 13 13 13 13 13 13 14 13 13 13 13 13 14 14 14 14 14 15 15 15 16 17 17 17 17 18
18 16 16 15 14 13 12 11 9 9 9 9 9 10 11 12 12 12 11 11 12 12 14 14 14 14 14 14 14 14 15 15 15 15 16 17 17 17 18 18 19 19 19
17 16 16 15 14 12 11 10 9 9 9 8 8 9 10 10 10 10 10 10 11 12 13 14 14 15 15 15 15 15 16 16 16 17 17 18 18 18 19 20 21 21 21
18 16 15 15 12 10 9 8 7 7 8 7 7 7 8 9 9 9 9 10 11 12 13 14 14 15 16 17 17 17 17 18 18 19 19 19 20 20 20 21 22 23 22
18 17 14 14 12 9 6 5 5 6 6 6 6 7 8 8 9 9 10 10 11 12 12 13 14 15 15 16 17 18 18 19 19 20 20 20 21 21 22 22 23 24 24
16 14 13 12 10 8 6 4 4 4 5 5 6 6 7 8 9 9 9 10 11 11 11 12 14 15 15 16 17 18 19 19 20 20 21 22 22 23 23 24 24 25 26
13 12 11 11 9 8 6 4 4 3 3 4 5 5 6 7 8 8 9 9 10 11 12 13 14 15 16 17 18 19 19 20 21 22 22 23 23 24 24 25 26 27 28
12 11 10 10 8 7 5 4 3 3 3 3 4 4 5 6 6 7 7 8 10 11 12 14 15 16 17 17 18 19 20 21 21 22 23 24 24 25 26 27 27 28 29
11 10 9 8 7 6 5 4 3 2 2 2 2 3 4 5 6 6 7 8 10 12 13 14 15 16 17 18 19 20 21 21 22 22 23 24 25 25 26 27 28 29 30
9 9 8 7 6 6 5 4 3 2 1 0 1 2 4 5 6 7 8 10 11 13 14 15 16 17 18 19 20 20 21 22 23 23 24 24 25 26 26 27 29 30 31
9 8 7 6 5 5 5 4 3 2 1 0 1 2 4 5 7 8 9 11 13 14 15 16 17 18 19 19 20 21 22 23 23 24 25 25 26 27 27 28 29 30 31
8 8 7 6 6 5 4 3 2 1 0 0 1 3 4 6 8 9 11 12 14 16 17 18 18 19 20 21 21 21 22 23 24 25 26 27 28 28 29 30 30 31 32